FW1436 Weather Reports


Display with metric or nautical units.
time (UTC)temp
F
wind
direction
speed
MPH
gust
MPH
rain 1hr
in
rain 24hr
in
rain mn
in
humidity
%
barometer
mb
20260903063100 0 0.0 0.0 0.00 0.00 0.00 1018.5
20260903061612 0 0.0 0.0 0.00 0.00 0.00 1018.3
20260903060046 0 0.0 0.0 0.00 0.00 0.00 1018.2
20260903054541 0 0.0 0.0 0.00 0.00 0.00 1018.1
20260903053038 0 0.0 0.0 0.00 0.00 0.00 1018.0
20260903051534 0 0.0 0.0 0.00 0.00 0.00 1018.1
20260903050032 0 134 0.0 1.0 0.00 0.00 0.00 1018.1
20260903044527 68 248 0.0 2.0 0.00 0.00 0.00 42 1018.0
20260903043025 68 147 0.0 1.0 0.00 0.00 0.00 42 1017.9
20260903041531 69 89 0.0 1.0 0.00 0.00 0.00 41 1017.7
20260903040022 69 96 0.0 0.0 0.00 0.00 0.00 41 1017.7
20260903034525 71 96 0.0 5.0 0.00 0.00 0.00 39 1017.6
20260903033035 71 99 0.0 5.0 0.00 0.00 0.00 38 1017.7
20260903031517 72 136 0.0 3.0 0.00 0.00 0.00 37 1017.6
20260903030016 72 108 0.0 1.0 0.00 0.00 0.00 37 1017.6
20260903024516 70 82 0.0 0.0 0.00 0.00 0.00 38 1017.6
20260903023015 70 82 0.0 0.0 0.00 0.00 0.00 38 1017.7
20260903021514 71 82 0.0 0.0 0.00 0.00 0.00 38 1017.4
20260903020014 70 82 0.0 0.0 0.00 0.00 0.00 39 1017.5
20260903014516 70 82 0.0 0.0 0.00 0.00 0.00 38 1017.5
20260903013012 70 82 0.0 0.0 0.00 0.00 0.00 39 1017.4
20260903011511 70 82 0.0 0.0 0.00 0.00 0.00 38 1017.4
20260903010011 72 82 0.0 0.0 0.00 0.00 0.00 37 1017.5
20260903004511 73 82 0.0 0.0 0.00 0.00 0.00 36 1017.4
20260903003008 71 82 0.0 1.0 0.00 0.00 0.00 39 1017.5
20260903001506 70 234 0.0 0.0 0.00 0.00 0.00 44 1017.5
20260903000005 71 234 0.0 0.0 0.00 0.00 0.00 45 1017.5
20260902234505 71 234 0.0 0.0 0.00 0.00 0.00 45 1017.4
20260902233106 71 248 0.0 0.0 0.00 0.00 0.00 44 1017.2
20260902231607 72 248 0.0 0.0 0.00 0.00 0.00 44 1017.2
20260902230054 73 248 0.0 0.0 0.00 0.00 0.00 40 1017.2
20260902224603 74 248 0.0 0.0 0.00 0.00 0.00 40 1017.0
20260902223049 74 239 0.0 1.0 0.00 0.00 0.00 39 1017.0
20260902221546 76 139 0.0 0.0 0.00 0.00 0.00 38 1016.9
20260902220045 77 120 1.0 8.0 0.00 0.00 0.00 36 1016.9
20260902214541 79 313 0.0 0.0 0.00 0.00 0.00 35 1016.7
20260902213043 79 321 0.0 1.0 0.00 0.00 0.00 36 1016.7
20260902211545 79 298 0.0 0.0 0.00 0.00 0.00 36 1016.7
20260902210046 80 298 0.0 0.0 0.00 0.00 0.00 36 1016.6
20260902204542 81 298 0.0 0.0 0.00 0.00 0.00 34 1016.7
20260902203048 82 298 0.0 0.0 0.00 0.00 0.00 34 1016.6
20260902201544 82 321 0.0 3.0 0.00 0.00 0.00 33 1016.5
20260902200051 83 226 0.0 0.0 0.00 0.00 0.00 32 1016.4
20260902194538 84 226 0.0 1.0 0.00 0.00 0.00 30 1016.1
20260902193035 84 225 0.0 1.0 0.00 0.00 0.00 31 1015.8
20260902191546 86 222 0.0 1.0 0.00 0.00 0.00 29 1015.6
20260902190039 87 220 0.0 1.0 0.00 0.00 0.00 28 1015.4
20260902184545 89 220 0.0 2.0 0.00 0.00 0.00 27 1015.1
20260902183032 91 278 0.0 2.0 0.00 0.00 0.00 27 1015.0
20260902181530 92 262 1.0 6.0 0.00 0.00 0.00 25 1015.0
20260902180033 93 264 1.0 7.0 0.00 0.00 0.00 26 1015.0
20260902174528 94 260 1.0 6.0 0.00 0.00 0.00 25 1015.0
20260902173028 94 224 1.0 10.0 0.00 0.00 0.00 24 1014.9
20260902171629 95 204 1.0 7.0 0.00 0.00 0.00 22 1014.9
20260902170026 95 296 2.0 6.0 0.00 0.00 0.00 23 1015.0
20260902164525 95 264 3.0 8.0 0.00 0.00 0.00 22 1015.0
20260902163025 95 220 1.0 7.0 0.00 0.00 0.00 22 1015.1
20260902161523 96 251 2.0 7.0 0.00 0.00 0.00 22 1015.2
20260902160022 95 330 3.0 9.0 0.00 0.00 0.00 21 1015.3
20260902154526 95 297 3.0 8.0 0.00 0.00 0.00 22 1015.4
20260902153023 95 259 2.0 6.0 0.00 0.00 0.00 24 1015.3
20260902151518 95 216 2.0 10.0 0.00 0.00 0.00 24 1015.5
20260902150015 95 276 1.0 4.0 0.00 0.00 0.00 24 1015.4
20260902144519 95 103 1.0 7.0 0.00 0.00 0.00 24 1015.7
20260902143014 94 299 1.0 9.0 0.00 0.00 0.00 23 1015.7
20260902141511 94 277 3.0 9.0 0.00 0.00 0.00 25 1015.7
20260902140010 93 290 2.0 8.0 0.00 0.00 0.00 26 1016.0
20260902134510 94 68 1.0 5.0 0.00 0.00 0.00 28 1016.0
20260902133008 93 323 5.0 9.0 0.00 0.00 0.00 27 1016.1
20260902131504 93 233 2.0 5.0 0.00 0.00 0.00 25 1016.3
20260902130100 91 259 1.0 7.0 0.00 0.00 0.00 24 1016.2
20260902124658 91 276 3.0 9.0 0.00 0.00 0.00 26 1016.3
20260902123115 91 217 2.0 10.0 0.00 0.00 0.00 29 1016.5
20260902121558 90 227 2.0 13.0 0.00 0.00 0.00 28 1016.8
20260902120104 90 52 0.0 7.0 0.00 0.00 0.00 31 1017.0
20260902114546 89 117 1.0 5.0 0.00 0.00 0.00 32 1017.1
20260902113043 88 156 1.0 3.0 0.00 0.00 0.00 34 1017.3
20260902111551 87 259 0.0 2.0 0.00 0.00 0.00 34 1017.6
20260902110038 86 106 0.0 3.0 0.00 0.00 0.00 38 1017.8
20260902104536 85 138 1.0 4.0 0.00 0.00 0.00 40 1017.9
20260902103033 83 257 1.0 3.0 0.00 0.00 0.00 43 1017.9
20260902101535 82 146 1.0 4.0 0.00 0.00 0.00 43 1018.1
20260902100029 80 329 0.0 5.0 0.00 0.00 0.00 44 1018.0
20260902094528 80 313 1.0 2.0 0.00 0.00 0.00 43 1018.0
20260902093025 80 98 0.0 3.0 0.00 0.00 0.00 46 1017.9
20260902091524 79 94 0.0 2.0 0.00 0.00 0.00 48 1017.9
20260902090019 77 113 1.0 3.0 0.00 0.00 0.00 47 1017.8
20260902084517 76 258 0.0 4.0 0.00 0.00 0.00 50 1017.7
20260902083014 75 102 0.0 2.0 0.00 0.00 0.00 52 1017.6
20260902081512 74 63 0.0 4.0 0.00 0.00 0.00 51 1017.6
20260902080011 73 98 0.0 3.0 0.00 0.00 0.00 47 1017.6
20260902074510 72 98 0.0 1.0 0.00 0.00 0.00 46 1017.5
20260902073008 70 97 1.0 3.0 0.00 0.00 0.00 46 1017.4
20260902071511 69 121 0.0 2.0 0.00 0.00 0.00 46 1017.3
20260902070006 66 87 0.0 2.0 0.00 0.00 0.00 51 1017.0
20260902064503 66 90 0.0 1.0 0.00 0.00 0.00 50 1016.8